Theta_e
311 310 310 310 309 310 311 312 313 314 314 315 316 318 321 324 326 323 318 320 319 319 325 327 323 320 320 319 317 318 319 318 319 319 319 319 319 319 319 318 318 319 318 318 318 318 318 318 318 319 319 319 318 318 319 319 319 320 320 321 323 323 324 325 324 325 325 323 323 324 323 322 323 323 323 323 323 323 323 325 332 338 338 338 340 342 345
311 311 310 310 309 310 311 312 313 314 314 315 317 320 322 324 326 322 318 319 319 320 325 328 324 320 319 318 318 318 318 318 319 318 319 319 318 320 320 318 318 319 318 318 319 319 318 318 318 319 319 319 318 319 318 318 319 319 319 323 323 321 325 329 324 322 323 323 323 327 326 322 322 323 323 324 323 324 327 327 332 339 337 337 341 343 343
311 311 310 310 309 309 310 312 313 314 314 316 318 321 323 325 327 323 318 318 319 319 321 322 321 321 320 319 318 317 318 318 318 318 319 318 318 320 320 318 318 318 318 318 319 319 319 319 319 319 319 318 317 318 318 318 318 318 319 324 323 321 326 330 326 322 322 322 323 325 324 322 322 322 322 324 323 324 326 326 332 340 339 336 339 342 342
311 311 310 310 309 310 310 311 313 314 314 317 320 322 324 328 328 324 321 320 319 319 319 319 320 321 322 322 319 317 318 318 317 318 318 318 319 319 319 319 319 319 319 319 319 319 319 319 320 320 319 319 317 317 318 318 318 317 318 320 320 322 328 332 331 326 323 325 328 328 324 321 319 320 321 322 323 324 327 329 333 339 341 338 338 340 340
311 311 310 310 310 310 310 311 313 314 316 320 322 323 326 329 327 324 324 324 323 322 320 319 319 320 322 322 319 317 318 317 318 318 318 318 318 319 319 318 319 320 320 320 320 320 321 320 320 320 319 319 318 317 317 317 317 318 319 319 321 324 326 327 327 325 323 325 325 323 321 320 317 318 320 322 323 323 324 328 332 338 342 342 340 338 336
311 311 310 310 311 310 310 311 313 316 320 323 325 325 325 327 325 321 322 323 324 322 319 319 320 318 319 320 317 318 319 317 317 318 319 319 318 320 321 319 319 320 320 323 325 324 323 323 323 323 321 320 319 317 317 317 317 317 319 320 321 323 324 322 320 321 323 323 321 320 320 320 319 319 320 320 322 322 321 323 329 338 342 342 342 339 337
311 311 310 310 311 311 310 311 313 317 322 325 325 323 324 326 325 323 324 324 322 320 318 319 319 318 322 323 318 318 319 317 316 317 319 320 318 319 321 320 319 319 321 326 328 326 325 325 326 326 324 322 321 319 319 319 317 317 319 321 321 322 325 323 319 319 321 321 322 321 319 318 319 319 320 320 320 321 320 322 331 340 342 341 342 341 339
311 312 310 310 311 311 311 311 312 314 318 322 323 322 322 325 326 326 327 327 322 318 319 321 323 322 323 325 321 317 318 316 316 317 317 319 319 319 319 319 319 319 321 325 325 324 324 325 327 328 325 323 323 323 323 321 319 319 320 320 320 321 324 324 321 320 321 320 321 320 318 319 318 318 319 320 318 319 319 325 336 342 341 340 341 341 339
311 312 311 310 311 312 312 311 311 313 316 319 322 322 320 322 325 327 329 329 323 319 320 323 327 325 322 322 320 317 317 317 317 318 317 316 318 318 318 319 319 320 321 322 322 322 323 323 323 323 322 322 323 324 325 322 321 322 321 321 321 323 324 324 323 322 321 319 320 320 319 319 317 317 319 318 318 319 319 325 336 340 339 339 339 338 338
311 312 311 310 311 313 312 312 311 313 315 317 321 322 319 318 324 327 329 331 325 322 324 323 324 324 320 319 319 317 318 319 319 321 319 315 316 317 316 319 322 322 322 322 321 320 320 320 319 319 319 319 319 321 322 320 321 322 322 322 324 323 323 324 324 323 320 318 319 318 317 318 318 318 319 318 320 320 316 323 336 339 337 338 338 337 336
311 312 311 310 311 312 313 313 312 312 315 318 323 324 318 317 325 329 329 330 327 323 326 325 322 322 320 318 319 318 319 318 319 322 321 317 317 319 318 319 323 323 321 319 319 319 318 318 319 318 318 318 317 319 320 319 320 320 320 322 325 324 324 325 325 323 322 321 320 319 318 317 319 321 321 320 320 318 319 326 335 337 336 336 336 335 334
311 311 311 310 311 312 313 313 312 313 315 319 323 325 318 315 323 330 330 330 328 324 324 323 320 320 319 319 319 318 318 319 318 320 320 318 318 319 318 319 322 321 318 316 317 317 316 316 317 317 317 317 317 317 318 318 319 319 319 320 321 324 326 326 323 322 323 322 321 320 319 319 322 323 324 323 321 321 326 331 334 335 335 335 334 333 333
311 311 311 311 311 311 312 313 312 312 314 318 322 323 318 313 319 328 330 331 330 327 322 320 319 319 320 319 318 318 318 319 318 318 319 319 319 319 317 317 318 317 315 315 316 316 318 320 319 318 317 317 317 317 317 317 318 318 318 318 319 322 325 325 323 322 323 322 320 320 321 323 324 325 324 325 326 327 330 334 335 335 335 334 333 333 332
311 311 311 311 311 311 311 312 313 312 313 316 319 319 316 312 315 323 329 331 331 327 323 323 322 320 320 319 318 319 321 319 319 319 318 318 319 319 317 316 316 315 314 316 316 318 321 324 322 320 319 318 319 318 317 317 317 317 318 318 319 321 323 325 325 323 322 320 320 322 324 323 323 326 327 325 327 329 331 333 335 335 334 333 333 333 332
311 311 311 311 311 311 311 311 312 312 312 314 315 315 313 312 313 318 327 331 331 326 322 322 322 319 319 320 318 320 323 323 323 323 319 318 320 319 318 317 316 315 315 316 318 321 323 323 322 321 321 320 320 321 319 318 318 317 317 318 319 320 324 327 327 325 322 320 320 322 325 324 324 328 327 323 324 327 330 332 333 333 332 333 332 331 331
311 311 312 311 311 311 311 311 311 311 311 312 313 313 313 312 312 316 324 330 330 326 319 317 318 317 319 321 319 319 323 325 325 324 323 324 323 320 318 318 317 317 317 317 320 322 322 322 322 321 323 324 324 324 324 321 320 319 318 318 318 319 323 326 326 325 323 321 320 320 321 325 328 329 326 322 322 325 328 331 332 332 331 332 331 330 330
312 311 312 312 311 311 312 311 311 311 311 310 311 314 315 312 311 315 322 327 328 326 319 315 316 319 322 324 323 321 322 323 322 323 325 326 323 320 320 319 317 317 318 318 321 323 322 322 321 321 324 326 323 324 327 326 323 322 322 320 318 320 323 323 322 323 324 323 320 319 321 326 328 326 323 322 322 324 326 328 330 332 331 331 330 329 329
314 311 312 312 311 311 311 312 311 311 311 310 311 315 316 313 310 313 318 323 326 326 321 315 316 319 320 321 322 320 318 318 319 321 324 325 323 321 321 320 319 319 320 321 323 323 322 323 322 321 325 327 324 325 329 328 324 325 325 322 321 321 323 322 321 321 323 323 320 320 324 327 325 323 322 320 321 323 325 326 329 329 329 330 328 327 328
315 312 312 312 311 310 311 311 312 312 312 311 312 315 317 316 313 311 312 316 321 325 324 318 316 319 317 317 319 319 317 318 319 321 324 326 324 321 321 320 319 319 321 322 323 322 321 322 323 322 324 328 328 327 327 324 323 326 326 324 323 322 322 321 321 320 320 321 321 323 326 325 322 320 317 317 322 325 324 326 327 325 326 327 326 325 326
315 312 312 312 311 310 310 310 311 311 312 311 312 317 322 322 318 314 311 311 314 321 325 321 318 318 317 317 319 319 319 320 320 321 324 326 323 321 322 323 321 321 325 325 323 323 322 323 324 323 322 325 327 325 324 322 323 326 328 327 324 323 322 322 321 320 319 319 319 324 328 326 320 319 320 323 328 328 324 323 323 322 323 324 323 323 323
314 312 312 312 311 311 310 310 309 310 311 311 312 318 325 326 322 316 311 310 312 319 324 323 321 319 317 318 319 318 318 320 321 322 323 323 323 322 324 325 323 323 326 326 323 323 323 323 324 323 321 324 325 324 324 324 323 324 328 328 326 325 325 325 324 323 322 321 321 323 326 325 321 322 326 327 327 325 323 321 321 321 322 322 322 322 322
314 311 312 312 311 311 310 310 309 308 310 310 311 314 320 323 321 316 310 310 313 316 318 320 321 321 319 317 317 316 316 317 319 320 320 320 321 322 322 323 323 322 322 323 323 324 324 323 324 323 322 324 324 324 324 325 324 324 326 327 328 327 325 324 326 326 326 326 325 324 324 323 323 324 325 324 322 322 322 321 320 321 321 321 321 321 320
314 312 312 312 311 312 311 311 310 309 309 309 310 311 313 315 315 312 310 313 318 319 319 320 322 323 321 318 317 316 316 316 317 319 320 319 320 321 322 322 322 323 322 322 323 324 323 323 324 323 323 323 323 323 324 323 324 325 325 326 326 323 320 320 325 328 328 326 323 322 322 323 323 323 322 322 321 321 321 320 320 321 321 320 321 320 320
313 312 312 312 312 312 311 311 311 310 310 309 309 311 312 312 311 310 313 320 324 324 323 323 322 322 321 319 318 318 317 317 317 318 319 318 318 320 323 322 322 323 323 322 323 323 322 322 322 322 323 322 321 323 324 324 323 323 323 325 325 322 320 322 324 326 327 326 325 324 323 323 322 322 321 320 320 319 320 320 321 321 321 321 320 320 319
312 312 312 312 312 312 312 312 311 311 310 310 310 310 312 312 312 312 316 323 325 324 325 325 322 321 321 319 318 319 319 318 318 318 318 318 317 319 322 323 322 322 322 322 322 321 322 323 323 323 323 322 321 323 324 324 323 322 322 324 325 323 322 324 324 323 325 327 325 322 320 321 321 321 320 319 318 319 320 320 320 320 321 321 320 320 319
312 312 313 312 312 312 312 312 312 312 311 310 310 311 312 312 312 313 317 321 324 325 325 325 323 322 322 320 320 320 319 318 317 317 318 319 318 318 320 321 321 320 321 322 321 321 321 322 322 323 324 323 321 322 323 322 322 322 322 323 322 321 321 323 324 323 325 327 326 322 322 324 321 319 320 319 318 318 320 320 320 320 320 319 318 319 319
313 313 313 312 312 313 313 312 312 312 311 311 311 311 312 312 313 315 316 318 322 326 326 325 324 323 322 321 320 320 319 318 317 318 319 319 318 319 319 319 319 320 321 322 322 321 321 322 322 322 323 323 322 322 322 322 321 322 323 322 320 321 323 324 325 326 327 327 325 324 326 327 323 319 319 319 318 319 320 320 320 319 319 318 317 317 318
313 313 313 313 313 313 313 313 312 311 311 311 311 312 314 314 315 318 318 317 320 324 325 324 323 322 322 322 321 320 319 319 319 319 319 319 319 320 320 320 321 321 321 322 322 322 322 322 322 321 321 321 322 321 321 321 320 321 322 321 320 322 324 324 325 326 325 323 321 321 324 324 321 319 319 319 318 319 319 319 319 319 318 317 316 316 317
313 313 313 313 313 313 312 312 312 311 311 311 311 314 318 319 320 321 321 319 319 321 322 323 322 322 322 322 321 320 320 320 320 320 321 321 321 321 320 320 321 321 321 322 322 322 322 321 321 321 320 320 321 321 320 320 321 322 322 321 320 321 322 322 323 323 323 321 319 319 321 321 319 318 319 319 318 318 318 318 318 318 317 317 316 316 316
313 312 313 313 313 313 312 312 311 311 312 312 314 319 323 323 323 323 323 322 320 319 321 323 324 323 323 322 321 321 321 321 321 321 322 322 322 321 321 321 321 321 321 322 321 321 321 320 320 320 320 319 319 320 320 320 320 321 321 321 320 320 320 320 321 322 321 320 318 318 320 321 320 319 319 318 318 318 318 317 317 316 316 316 316 316 316
312 312 313 313 313 312 312 312 312 312 314 315 318 323 326 325 324 323 322 320 318 318 321 324 324 324 323 322 321 322 321 321 322 321 321 322 321 321 321 321 321 321 322 322 322 321 320 320 319 320 320 319 319 320 319 319 320 320 320 320 320 319 319 319 319 320 320 319 318 318 319 319 320 319 319 318 318 317 317 317 316 316 316 316 315 315 315
312 313 313 312 312 312 312 312 313 314 316 318 319 322 323 322 321 320 318 316 316 319 323 324 323 324 325 323 322 321 320 321 322 321 321 321 321 321 321 320 320 321 321 320 321 320 320 319 319 319 319 319 319 319 319 319 320 319 319 318 319 318 319 319 318 319 319 319 319 320 319 319 320 319 319 319 318 317 317 317 316 316 316 316 315 315 314
312 313 312 312 312 313 313 314 316 317 320 321 321 319 319 319 318 317 316 315 317 321 323 323 323 324 324 323 322 322 321 321 322 321 322 322 321 320 320 320 320 321 320 320 320 320 319 319 319 319 319 318 318 319 319 319 318 318 317 316 317 317 318 318 318 319 319 319 319 319 320 320 320 319 318 318 317 317 316 316 316 316 316 315 315 314 314
312 313 312 312 314 315 315 317 318 319 321 323 323 321 320 320 319 317 316 317 319 321 323 323 324 324 323 322 322 322 321 321 321 321 322 322 321 320 320 320 320 320 320 319 319 319 319 319 318 318 318 318 318 318 318 318 317 316 315 315 315 316 316 317 317 317 317 317 317 318 318 318 319 318 318 317 317 317 316 316 316 316 316 315 315 314 314
312 312 312 314 316 317 318 318 319 319 322 323 324 323 323 320 318 316 316 318 321 324 324 323 323 324 322 322 323 323 320 320 320 321 321 321 320 320 320 320 321 320 320 319 319 319 319 318 318 318 318 318 317 317 317 317 316 315 315 315 315 314 315 316 316 316 316 316 317 317 317 316 317 317 317 317 317 316 316 316 316 316 316 315 315 314 314
312 312 313 315 317 319 320 320 320 320 322 323 322 321 321 318 316 316 316 316 320 324 326 324 324 324 322 322 323 322 320 320 321 321 320 320 320 319 318 320 321 321 320 319 319 320 319 318 317 318 317 317 317 317 316 316 316 315 315 315 315 314 314 315 314 315 315 315 316 316 316 315 315 316 316 316 317 316 316 316 316 316 315 315 315 315 314
313 313 314 316 318 321 322 323 322 321 322 321 319 317 317 317 317 320 320 318 319 321 322 323 323 323 322 323 323 321 320 321 322 320 319 320 320 319 319 320 321 320 319 319 320 320 318 318 318 319 317 316 316 316 316 316 316 316 317 317 316 315 315 315 315 314 313 313 314 315 314 314 314 315 315 315 315 316 316 316 316 316 315 315 315 314 314
314 314 315 317 320 322 323 323 323 323 321 319 318 318 320 321 322 323 324 322 321 321 321 321 323 322 322 323 323 321 320 320 319 320 320 319 319 318 319 319 319 319 319 319 319 318 318 318 319 318 316 315 316 315 315 315 316 316 316 316 315 315 316 316 316 315 314 314 314 313 313 313 313 313 314 315 315 315 315 315 315 315 315 315 315 314 313
315 316 319 321 322 323 323 322 321 319 318 318 319 321 323 324 324 324 324 324 323 323 322 322 323 323 322 322 322 321 320 318 318 320 320 318 318 318 317 317 318 318 318 318 318 317 318 319 318 317 316 316 316 315 315 315 315 315 315 315 314 314 315 315 315 315 316 315 314 313 312 312 312 313 314 315 314 314 315 314 314 315 315 315 315 314 314
317 317 320 322 322 322 322 321 319 317 318 320 322 323 324 324 324 324 323 324 324 323 323 323 323 322 322 322 322 322 320 318 319 321 320 319 318 317 316 317 318 317 318 318 318 317 317 318 317 316 316 316 315 315 315 315 314 314 315 315 314 314 315 315 314 314 315 315 315 313 313 312 313 313 313 314 314 314 315 315 315 314 314 314 314 314 314
319 319 321 322 321 320 320 320 320 320 321 323 323 323 323 323 324 323 323 324 324 323 322 322 322 322 322 321 321 322 321 319 318 319 319 319 319 318 317 318 318 316 317 319 318 317 317 317 316 316 315 314 314 315 315 315 314 314 314 314 314 313 314 314 313 313 314 314 314 313 313 313 313 313 313 313 314 315 315 315 315 314 314 314 314 314 314
317 317 317 316 317 318 320 321 321 322 322 323 323 323 323 323 324 325 324 324 324 323 322 321 321 322 321 320 320 321 321 319 318 317 319 320 319 317 318 320 319 317 318 318 317 316 316 315 315 315 314 313 314 315 314 314 314 313 313 312 312 311 312 311 311 311 312 312 312 312 313 313 313 313 312 312 313 314 314 314 314 314 314 314 315 314 313
314 314 314 315 317 320 322 322 322 322 322 321 322 322 322 322 323 325 325 323 322 321 322 322 321 320 321 320 319 320 320 319 317 317 320 320 319 317 318 320 319 318 317 317 317 317 316 315 315 315 314 313 314 314 313 313 313 311 310 310 310 309 309 309 309 310 310 310 310 311 311 312 312 312 312 311 311 311 313 314 314 314 314 314 314 314 313
314 317 318 319 320 321 321 321 321 323 324 323 320 320 321 322 323 324 325 324 323 323 322 321 321 321 321 320 320 321 321 319 318 318 318 319 319 320 319 319 319 318 317 317 317 316 316 315 314 313 313 313 313 312 311 311 310 309 308 308 308 308 307 307 307 308 308 308 309 310 310 311 311 311 311 311 311 310 311 312 313 314 314 313 313 313 313
317 320 320 319 319 319 320 321 321 322 324 323 321 320 322 323 323 324 324 322 322 322 322 321 320 321 321 320 320 320 320 319 319 320 319 318 320 320 319 318 318 318 316 316 316 316 315 314 313 312 312 312 311 310 309 309 308 307 307 307 306 306 306 306 306 306 306 307 307 308 309 309 309 309 310 311 311 311 311 311 311 312 313 313 313 313 312
319 320 319 319 319 318 318 319 319 319 321 323 322 321 322 323 323 323 322 321 321 321 320 320 320 320 320 319 320 319 318 318 319 320 320 318 318 318 317 316 317 317 315 315 315 315 314 312 312 311 310 310 309 308 307 307 306 306 307 306 306 306 306 305 305 305 305 306 306 307 307 308 308 308 309 309 310 310 311 311 311 311 312 313 313 312 311
319 319 318 319 319 317 316 317 318 319 322 324 323 321 321 321 322 322 321 321 322 321 319 319 319 319 319 318 318 318 318 318 318 319 318 317 316 317 317 316 316 315 314 315 315 314 313 312 312 310 308 307 307 307 307 306 306 307 307 307 307 307 306 306 306 305 305 305 305 306 306 306 307 307 308 308 309 310 310 310 310 310 310 311 312 312 311
319 319 318 319 319 318 318 318 319 320 321 321 321 321 321 321 321 322 322 321 321 321 320 319 319 319 319 318 317 317 317 317 316 316 316 315 315 316 317 316 314 314 314 314 314 314 313 311 310 308 307 306 307 307 307 307 306 306 306 306 306 306 306 306 306 305 305 305 305 305 305 305 306 306 305 306 306 307 308 309 309 309 309 310 311 311 311
318 318 319 319 319 318 318 318 320 322 321 320 320 321 321 320 320 321 322 322 321 320 320 318 318 319 319 317 315 315 317 316 315 315 315 314 314 315 315 314 314 315 314 314 313 312 311 308 307 307 306 307 307 307 306 306 306 306 305 305 305 306 306 306 306 305 305 305 304 304 304 305 305 305 305 305 304 304 306 308 309 308 308 309 310 311 311
317 317 318 318 318 318 318 317 319 322 323 322 322 323 322 322 322 322 322 321 320 320 320 319 318 319 319 317 314 314 315 316 316 315 314 314 314 314 314 314 315 315 314 313 311 310 308 307 306 306 306 306 306 306 306 306 306 306 305 305 305 305 305 305 305 305 305 305 304 304 304 304 304 305 305 305 305 303 303 306 308 308 309 309 310 311 311
316 317 318 317 317 317 317 318 321 322 322 323 323 323 322 322 323 322 322 321 320 320 321 321 319 318 317 315 313 313 314 315 316 316 315 314 314 314 314 314 315 314 312 311 309 308 307 307 306 306 306 306 306 306 306 306 306 306 306 305 305 305 305 305 305 305 305 305 305 305 304 305 305 305 305 305 304 303 303 304 305 307 308 309 310 310 310
316 317 317 316 317 318 319 321 324 324 322 322 323 322 321 321 322 323 322 321 321 322 322 321 321 320 318 315 314 315 315 315 316 315 314 314 315 315 314 314 313 311 310 309 308 307 307 306 306 306 306 306 306 306 306 306 306 306 306 306 306 305 305 305 305 305 305 305 305 305 304 304 304 305 305 305 305 304 305 305 305 305 307 309 310 310 310
Wind_Speed
20 20 22 23 23 24 26 26 25 23 20 15 12 15 12 8 10 8 1 2 6 6 4 5 2 2 2 3 1 2 4 5 8 6 5 5 4 3 1 1 3 4 2 1 4 3 4 6 6 4 2 3 4 8 13 14 10 6 3 3 8 7 2 1 3 5 4 5 8 8 5 1 3 3 4 5 4 2 2 4 4 3 4 5 5 4 2
19 19 21 22 22 23 24 25 23 21 21 19 18 18 15 14 14 7 3 4 6 5 1 2 1 1 1 1 3 2 3 6 7 6 6 5 3 4 3 2 4 0 4 4 5 5 2 4 2 1 2 1 3 7 12 12 8 5 2 3 5 5 2 2 3 4 5 3 2 2 3 4 2 3 6 7 2 3 2 2 4 4 5 7 6 4 2
18 18 20 21 21 22 23 23 21 19 18 18 19 20 17 14 10 5 2 6 11 6 4 2 2 3 2 4 4 2 3 4 2 5 5 5 5 4 4 2 0 1 4 3 3 4 2 2 1 3 1 1 3 6 7 6 6 5 5 6 6 3 2 2 3 1 3 2 1 1 3 3 2 4 9 9 2 7 4 2 5 4 4 6 7 6 3
18 18 19 20 21 22 23 22 18 15 15 16 17 18 14 7 5 5 4 2 6 2 5 4 3 3 3 3 4 2 1 6 4 3 4 5 6 5 4 4 5 5 1 1 0 3 1 4 2 3 1 3 3 5 5 4 5 4 7 7 5 3 1 2 2 3 2 2 3 2 4 2 1 6 10 6 5 8 4 4 4 4 5 4 7 13 10
17 17 19 20 20 22 23 21 16 10 11 16 16 15 11 5 3 3 4 6 6 6 7 6 5 3 2 1 3 5 2 4 5 4 4 4 4 4 6 7 5 5 5 3 3 6 4 4 1 2 1 3 3 3 5 3 4 6 5 7 4 2 3 3 2 2 3 5 4 7 7 3 5 11 10 2 7 8 6 5 5 7 7 4 6 15 15
16 16 18 19 20 22 23 21 14 7 9 15 14 12 10 7 7 9 7 4 4 5 7 7 5 6 6 2 3 5 5 5 4 5 5 4 1 2 5 7 4 5 6 4 3 7 7 5 5 5 4 2 2 2 3 3 5 7 5 9 5 1 2 6 7 4 4 6 6 6 7 5 8 12 10 5 6 6 3 2 4 6 6 7 9 13 13
16 16 17 18 19 21 23 21 14 8 9 14 14 12 14 13 10 14 15 10 5 2 2 4 5 6 4 3 5 6 7 8 7 6 6 5 6 5 3 4 7 6 6 6 3 4 4 4 5 5 6 6 2 1 1 3 6 6 4 5 3 1 2 6 7 6 7 8 6 3 7 7 6 8 6 6 9 6 3 3 7 10 10 13 14 12 10
15 15 15 17 18 19 22 21 16 11 9 12 17 16 16 15 10 13 17 14 8 3 2 1 5 3 1 2 5 6 7 7 6 6 6 6 7 7 5 4 7 8 8 6 4 4 4 2 1 2 5 6 4 4 3 4 6 6 4 2 2 3 3 6 4 4 7 9 4 3 6 5 5 7 6 7 7 7 6 5 11 13 11 13 15 13 8
14 14 14 16 16 17 20 20 18 15 11 10 15 17 16 10 6 10 12 8 6 7 5 4 5 2 3 4 4 4 7 6 5 4 5 6 6 8 9 8 5 5 7 6 5 6 6 5 5 7 7 6 4 3 3 5 6 4 3 3 2 3 3 6 4 3 4 7 6 4 4 5 4 6 6 4 2 3 5 3 9 12 13 13 13 11 7
13 13 13 14 15 16 18 19 19 17 13 12 15 19 19 11 5 11 12 6 6 8 4 4 4 2 2 2 2 3 7 8 6 3 3 6 6 5 7 8 6 3 6 5 7 9 9 9 10 12 12 11 9 5 2 2 4 4 4 3 2 2 3 4 4 2 2 5 8 7 4 3 4 3 4 5 1 1 5 2 10 16 15 12 9 7 6
12 12 12 13 13 14 15 17 19 18 16 17 17 19 22 17 10 14 13 6 6 4 3 4 3 2 2 3 3 4 6 8 6 4 3 6 7 6 7 8 6 4 5 7 8 8 10 10 10 12 12 13 12 7 4 2 2 3 2 2 2 2 2 2 3 2 3 4 7 8 2 3 2 1 3 6 3 2 2 3 12 15 10 9 9 9 10
11 11 11 12 12 13 13 14 16 17 16 16 16 17 21 18 12 14 11 4 5 6 4 2 4 4 6 8 8 8 8 9 7 6 5 5 6 8 9 8 5 3 5 7 6 5 8 9 8 9 11 12 11 9 8 5 3 5 3 1 3 3 1 1 1 1 3 5 5 4 3 3 2 5 7 8 3 5 10 11 11 13 13 14 13 11 11
10 11 10 11 11 11 12 12 13 14 14 14 13 15 19 16 12 13 11 4 4 7 4 4 6 8 9 10 9 6 6 8 7 5 5 5 5 8 8 7 6 5 5 7 5 3 4 5 3 3 6 7 7 8 9 7 6 6 5 4 3 3 1 1 1 1 1 3 1 0 3 2 5 6 6 8 7 9 14 11 9 11 14 15 14 12 11
9 10 10 10 10 10 10 11 11 11 13 13 12 13 16 16 13 13 10 4 4 7 6 5 6 8 8 7 5 3 0 5 4 3 4 5 4 8 8 7 6 6 6 5 5 3 2 2 1 1 1 2 2 4 5 6 6 4 3 3 2 1 1 2 1 2 2 2 2 1 2 3 3 3 2 4 7 8 9 7 6 8 11 14 13 12 12
9 10 10 9 9 9 10 10 10 10 10 11 11 11 14 15 14 11 8 5 6 6 7 6 4 6 5 4 4 3 1 4 3 1 2 3 4 6 5 5 6 6 7 6 4 3 2 2 2 1 2 1 0 1 1 1 0 2 3 3 0 2 1 2 1 2 2 1 2 0 1 2 2 3 2 2 7 11 11 8 5 5 11 17 14 12 15
8 9 10 9 9 9 9 9 10 9 9 9 10 10 11 13 13 9 7 7 5 4 7 8 7 7 6 5 6 5 3 3 2 2 1 3 6 4 4 3 4 5 8 7 3 2 2 2 2 2 0 1 1 1 1 1 1 3 2 5 3 1 2 3 1 3 2 1 1 2 1 3 3 3 4 8 12 15 13 8 1 4 12 18 15 14 19
9 9 9 8 8 8 8 9 9 9 10 10 9 9 9 11 13 10 8 10 8 5 7 10 9 9 8 6 6 7 7 5 4 3 1 1 5 3 4 5 4 2 6 6 2 2 2 2 3 2 1 1 1 1 1 3 1 2 1 3 4 3 1 3 1 3 3 2 2 1 1 2 1 4 9 13 15 13 10 4 3 8 16 20 16 16 22
9 8 9 8 8 8 8 8 8 8 9 10 10 10 9 10 13 10 8 10 8 6 8 9 8 9 7 4 4 5 6 6 5 4 1 3 3 4 5 7 4 2 2 3 1 1 2 3 3 1 1 2 3 2 1 3 3 2 3 3 2 2 1 2 3 4 3 3 3 1 1 1 2 7 11 13 11 7 5 3 7 12 19 20 16 17 22
9 8 8 8 8 7 7 7 7 7 8 8 9 10 8 9 11 10 9 10 7 7 8 9 8 9 7 5 7 5 4 4 4 4 2 1 3 8 7 4 2 2 3 3 2 2 2 2 2 2 1 1 1 1 2 3 3 1 3 2 2 2 2 2 3 3 3 3 2 1 1 1 4 12 13 10 7 2 2 2 3 13 19 16 15 18 21
9 7 7 7 7 7 7 7 7 7 7 7 8 8 8 9 12 11 11 11 9 8 7 8 10 10 7 7 8 7 6 6 5 4 4 2 4 8 6 2 1 3 5 5 2 2 2 3 3 2 2 2 0 2 2 4 4 1 2 0 2 1 1 2 2 2 2 3 0 2 1 2 7 12 7 5 3 4 0 7 14 21 25 24 23 23 24
7 7 7 7 7 7 7 7 6 6 6 6 6 6 7 8 10 10 9 10 9 7 5 6 9 10 8 8 8 6 7 8 7 6 7 6 6 5 2 1 2 3 2 3 2 1 3 2 2 2 2 2 1 1 2 3 5 3 2 1 2 4 2 2 1 2 1 1 1 2 2 5 11 13 6 4 7 6 6 14 21 24 26 28 28 26 24
7 6 7 7 7 7 7 7 6 6 5 5 5 3 3 4 7 9 9 7 6 6 7 7 7 7 7 6 5 4 5 6 5 5 6 7 8 6 3 4 6 5 5 4 2 1 2 2 1 2 3 1 1 1 1 1 3 5 4 2 0 3 4 3 3 2 1 1 2 2 5 14 19 18 14 13 13 9 9 15 21 21 22 24 27 27 25
6 6 6 7 7 7 7 7 7 6 5 5 5 4 5 7 8 8 6 4 4 7 8 7 7 8 5 2 1 4 5 4 3 3 2 3 5 5 8 10 8 6 6 6 3 2 3 3 1 1 2 1 1 2 2 0 0 2 3 0 2 4 10 8 3 2 1 2 1 3 11 17 19 17 16 15 14 12 10 13 19 21 20 19 21 23 23
5 5 6 6 7 8 7 7 7 6 5 5 4 4 6 8 8 7 5 4 6 9 7 5 4 3 2 3 3 5 5 2 1 3 4 3 3 3 7 9 6 5 6 6 5 4 3 2 2 2 1 1 2 2 1 0 1 1 2 2 0 6 11 7 2 3 2 0 1 1 7 16 19 16 14 13 12 12 10 12 19 21 20 19 18 19 20
4 5 6 7 7 8 7 7 7 6 5 4 4 4 5 6 7 7 6 6 7 7 5 4 1 1 3 5 3 3 4 3 2 3 3 3 4 3 5 7 5 5 5 4 3 4 3 2 1 2 1 1 2 1 1 1 1 1 2 1 0 5 8 4 1 3 3 1 3 9 5 9 17 17 16 14 11 12 13 14 18 20 20 18 15 13 14
3 4 6 8 8 8 7 6 6 6 5 4 4 4 4 5 6 4 4 5 6 4 4 4 3 2 5 6 3 3 3 4 3 2 1 2 3 1 2 3 4 4 4 2 2 3 3 2 1 1 0 1 2 1 1 1 1 2 1 1 1 2 5 2 0 2 3 2 8 14 13 4 5 12 18 19 14 13 16 15 15 17 19 18 12 8 8
3 5 7 8 8 8 7 6 5 5 4 3 3 4 4 5 4 3 4 6 6 1 3 3 5 5 7 7 5 4 4 3 2 2 1 1 1 1 2 2 0 1 1 0 1 2 2 2 1 1 0 1 2 2 3 3 2 2 2 2 4 2 2 1 0 1 1 1 4 8 5 4 6 0 11 19 18 17 17 16 15 15 15 14 14 12 10
4 6 8 8 8 7 6 5 5 4 3 3 3 3 4 4 3 3 4 5 5 2 4 8 9 9 8 7 5 2 2 3 3 2 2 2 1 1 2 1 3 2 1 1 1 1 1 1 1 0 0 1 1 2 3 2 1 3 3 4 5 4 3 3 2 2 2 2 1 5 1 4 5 5 7 19 20 15 15 16 16 15 14 11 11 10 10
5 7 8 8 7 6 5 5 5 3 3 4 3 2 2 2 3 2 2 4 5 4 5 8 9 6 4 5 4 1 1 3 3 2 2 3 2 1 2 2 2 2 3 3 2 1 2 1 0 1 1 1 1 1 2 1 2 2 3 6 6 5 5 4 3 2 2 3 4 1 1 1 3 5 4 15 18 15 15 16 17 16 15 13 10 9 10
6 8 8 7 6 5 5 5 4 4 5 5 3 1 3 3 0 2 4 7 9 6 4 4 5 4 4 5 5 1 1 2 3 2 2 3 4 4 4 3 3 3 3 2 1 1 1 1 1 2 3 3 2 1 1 2 2 1 3 5 5 5 5 5 3 3 3 5 4 3 2 1 2 2 3 7 12 15 17 18 17 16 15 15 13 12 13
7 8 7 6 5 5 4 4 4 4 5 3 2 1 2 1 3 5 7 10 9 4 1 4 6 6 5 3 1 1 2 2 2 2 3 4 5 5 4 3 4 3 2 1 1 0 1 2 2 2 3 4 3 2 1 2 3 2 1 3 4 4 4 5 5 4 6 7 6 6 7 5 4 5 5 5 6 11 15 18 19 16 13 14 16 16 14
6 7 6 5 5 4 4 4 3 3 3 3 2 1 2 1 4 6 8 9 4 2 1 4 5 4 2 1 2 3 3 2 0 1 2 3 4 4 3 2 3 2 0 0 1 1 1 2 3 2 1 3 4 2 2 2 3 3 3 5 7 7 6 7 7 6 6 7 7 7 8 8 6 8 9 8 7 8 11 15 19 19 16 14 16 17 15
6 6 5 4 4 4 3 3 2 2 3 5 4 1 2 4 9 10 9 5 1 3 1 4 3 2 1 2 2 4 4 1 1 3 3 2 2 3 2 1 2 2 2 1 1 2 1 2 2 1 1 2 3 1 2 2 4 8 11 13 14 11 7 7 7 6 6 7 8 9 9 9 8 9 11 10 11 12 12 10 12 17 18 16 15 16 14
4 4 4 3 2 3 3 3 2 2 3 5 5 2 3 8 12 12 9 4 1 2 3 3 3 2 0 2 2 4 5 3 2 3 3 2 1 2 1 1 2 2 2 1 2 2 2 1 1 1 1 2 2 1 1 3 7 9 7 9 12 10 7 6 6 6 8 10 8 9 10 10 9 10 11 12 14 15 14 12 10 15 20 19 17 16 14
3 3 3 2 1 2 2 2 3 3 3 2 3 6 7 10 13 12 8 3 1 0 2 4 3 1 0 1 1 3 5 5 3 3 2 3 3 3 2 2 1 1 2 2 2 2 2 2 2 1 1 1 1 0 2 4 6 5 4 7 9 8 6 6 6 7 9 10 9 9 12 13 12 11 10 12 14 15 15 14 13 15 21 21 20 18 16
2 2 3 2 1 1 2 2 3 3 2 1 4 8 10 13 13 10 7 3 3 2 2 3 2 1 1 1 1 2 4 6 7 6 4 3 3 4 5 3 1 2 3 3 1 1 2 3 2 1 0 1 1 1 4 6 6 6 7 8 9 8 8 8 8 9 9 8 7 7 8 10 12 14 14 12 11 13 16 19 18 18 21 22 21 20 19
2 2 3 2 1 1 2 2 2 3 3 6 9 11 11 9 7 5 4 2 3 4 3 3 3 1 1 1 1 2 2 4 6 6 5 4 2 4 6 4 1 2 3 2 1 2 3 3 2 1 1 1 2 3 2 4 5 6 7 6 7 8 9 9 9 10 10 9 8 6 5 6 8 11 13 14 14 13 13 17 20 20 21 21 20 19 18
1 3 4 3 2 3 3 1 3 6 10 12 12 9 5 2 1 1 1 1 3 4 5 4 3 3 2 1 2 3 1 2 2 2 2 2 1 2 4 3 1 2 2 1 2 4 3 3 2 1 1 2 2 4 5 4 4 6 6 6 7 7 8 8 9 11 10 10 9 9 8 9 10 9 9 11 14 16 14 13 15 17 17 19 19 17 17
3 3 4 5 4 4 4 5 7 10 11 9 6 3 1 2 2 2 4 5 3 4 5 6 5 4 2 2 2 3 0 2 3 1 1 2 1 0 0 0 1 2 1 0 2 3 1 1 2 2 2 1 1 3 4 4 4 5 6 6 7 7 7 7 7 8 8 7 9 10 10 10 10 9 8 8 11 13 14 14 15 17 17 18 19 19 18
5 4 4 4 4 4 7 11 11 9 6 3 1 1 3 3 3 2 4 4 3 3 5 5 4 4 3 3 2 1 1 2 2 1 1 1 1 0 1 0 1 1 1 0 2 3 2 0 2 2 1 1 1 2 3 4 5 6 6 7 8 8 8 8 8 7 6 6 8 9 10 9 9 8 8 8 8 10 11 13 16 19 18 18 20 22 22
4 4 3 4 4 5 9 11 9 6 4 2 2 2 2 3 3 2 1 1 1 2 5 4 4 4 4 3 3 2 0 1 1 2 2 0 2 1 1 1 1 1 1 1 2 3 1 1 2 2 1 3 1 2 3 4 5 6 6 8 9 9 8 8 8 8 7 8 8 8 9 8 8 9 8 7 7 9 10 10 14 19 20 19 21 24 25
2 3 4 6 7 6 7 7 4 2 2 2 1 1 2 2 1 1 1 1 2 2 3 4 3 3 4 4 3 2 0 1 0 2 2 0 1 1 2 0 1 1 1 1 2 1 1 1 1 2 2 3 1 3 5 5 5 7 7 8 9 9 9 10 9 8 8 8 8 8 8 8 8 10 10 8 8 10 10 10 12 14 17 20 22 23 24
0 2 5 6 5 4 4 3 3 3 2 0 1 1 2 1 0 2 1 2 3 3 2 4 4 3 4 4 3 2 1 1 1 2 2 1 1 1 1 1 0 1 2 1 0 1 1 1 2 3 2 3 2 4 6 6 6 7 8 8 9 9 9 10 10 9 9 9 9 9 9 8 8 10 11 10 9 9 10 11 12 13 14 17 19 21 22
2 3 4 3 2 1 2 1 2 1 1 1 1 1 2 1 1 1 2 2 1 2 4 5 4 3 4 4 3 3 3 3 2 1 2 2 2 1 0 1 2 3 2 1 0 1 1 2 3 3 2 2 3 5 5 6 7 8 8 8 9 9 10 11 11 11 11 11 11 10 10 10 9 9 10 10 10 8 8 10 13 15 15 15 16 18 20
1 2 2 2 2 1 1 0 1 2 2 1 1 1 2 1 1 1 3 3 2 4 6 7 6 6 4 5 5 3 3 4 4 2 2 1 1 1 1 2 1 1 1 1 1 1 1 2 2 2 1 1 3 4 6 7 8 9 10 11 11 11 12 13 13 12 12 12 12 11 11 11 11 11 10 10 10 9 8 8 10 13 14 15 15 16 19
1 1 1 1 1 1 1 1 1 1 0 0 2 2 2 5 4 2 2 4 5 6 6 6 8 8 6 6 6 7 6 5 4 3 3 2 1 1 2 2 2 0 1 1 0 2 1 1 3 2 1 3 4 6 9 10 10 11 12 13 13 14 14 14 14 13 11 11 12 12 12 11 11 11 11 11 10 9 8 9 9 11 13 15 15 15 19
1 3 2 1 1 2 3 4 3 1 2 1 1 1 6 10 10 7 6 7 9 9 7 6 7 9 7 5 6 6 7 7 3 3 4 3 1 1 2 1 0 1 0 1 1 3 1 4 5 2 4 7 7 8 10 12 13 13 13 13 14 14 14 13 13 12 11 11 12 12 13 13 13 12 12 12 11 10 10 10 10 10 12 15 16 16 18
2 4 2 1 1 2 3 4 4 2 1 2 1 2 5 8 11 13 11 8 6 7 6 4 5 6 5 6 5 3 4 5 3 2 3 3 1 1 1 1 1 1 2 1 0 1 3 5 5 5 7 7 7 8 10 12 15 16 15 14 15 15 14 15 15 15 16 16 14 13 13 13 14 14 14 14 13 13 12 11 10 10 11 14 17 17 17
3 3 2 2 3 5 8 9 8 3 1 3 4 4 3 5 10 14 13 6 2 3 4 3 2 3 2 3 3 3 2 3 2 1 2 2 1 1 0 1 1 2 2 2 2 3 7 10 10 8 7 6 7 8 9 11 14 15 14 14 14 13 14 16 17 17 17 17 15 14 13 13 13 14 14 14 16 16 14 11 10 10 10 13 16 16 16
4 4 5 5 5 6 10 11 8 3 1 3 4 4 3 4 7 9 7 4 3 3 3 2 1 3 3 2 2 1 2 1 1 1 1 1 1 1 0 1 1 2 2 4 5 8 11 12 10 8 8 8 8 8 8 9 11 12 12 12 12 12 13 15 15 15 16 16 14 14 14 15 14 14 14 15 17 17 15 13 13 12 11 12 14 15 16
4 5 7 9 10 10 11 9 5 2 2 3 2 2 4 6 6 5 5 4 3 2 1 1 2 2 2 1 1 1 1 1 1 2 2 1 1 1 1 2 2 2 5 8 11 14 14 11 8 8 7 6 6 5 6 8 9 10 10 11 10 11 12 13 13 14 15 15 15 14 14 14 14 14 14 16 16 16 14 14 16 15 14 14 15 15 17
4 5 8 11 13 13 11 7 3 3 5 6 5 5 6 7 6 5 5 3 1 1 2 1 1 0 1 1 2 2 2 1 2 1 1 3 2 1 1 2 2 4 9 15 17 17 13 10 8 8 6 5 4 4 5 7 8 9 10 10 10 10 11 12 12 14 15 15 15 14 14 14 13 13 13 14 14 13 13 13 13 14 14 15 16 15 18
Wind_Direction
350 349 349 351 352 353 354 352 346 343 351 356 352 351 347 315 295 300 310 201 218 216 259 296 247 153 340 298 312 339 324 2 4 358 21 11 6 32 33 95 52 8 16 359 313 328 57 50 37 24 23 39 17 354 358 7 4 354 5 358 349 343 325 357 333 316 281 198 184 192 207 287 340 290 265 258 249 230 183 164 136 101 110 110 93 99 123
351 348 350 351 352 355 355 353 347 342 348 353 353 351 340 317 300 281 125 135 223 239 272 279 285 77 293 280 115 119 42 20 343 340 18 11 8 22 10 123 147 28 64 58 332 327 57 97 89 326 275 321 14 5 9 15 17 23 23 319 338 341 323 39 33 329 332 357 28 29 7 356 333 280 273 266 276 51 78 126 83 87 125 118 106 107 128
350 348 350 351 353 356 356 354 349 340 342 349 348 344 338 331 315 279 162 174 207 234 343 334 348 29 6 4 42 127 110 75 337 309 343 352 352 7 348 314 317 96 119 123 314 318 27 87 235 250 219 86 43 26 18 22 30 16 338 327 333 311 288 39 60 26 13 21 22 2 328 299 292 296 277 266 355 60 80 94 58 70 118 117 116 120 142
349 349 351 352 355 357 356 357 351 338 338 344 346 344 341 338 323 307 318 248 201 241 344 4 52 43 28 8 358 341 86 93 74 332 343 5 348 343 333 336 9 21 12 116 356 279 203 123 197 249 152 104 53 6 352 50 59 326 308 336 339 303 315 61 90 57 27 238 224 282 294 264 279 287 270 268 40 54 74 90 90 118 117 114 140 142 153
348 352 353 354 358 358 358 358 352 341 339 340 343 346 338 309 293 341 353 346 0 9 357 21 61 44 18 349 317 335 20 84 75 37 17 352 309 335 356 345 358 18 1 31 34 339 3 95 134 289 4 86 89 333 312 43 43 313 331 27 21 325 357 1 4 8 286 275 327 344 326 6 6 316 297 347 47 44 38 60 129 142 111 100 155 147 149
348 354 356 357 360 1 2 0 354 349 353 350 351 353 350 336 328 360 23 341 347 28 355 352 41 38 15 356 324 359 31 42 55 47 10 338 289 56 1 339 357 46 41 55 28 359 17 33 6 357 356 12 121 229 285 41 2 327 31 55 39 342 359 347 340 327 282 289 312 327 332 16 11 336 324 359 39 60 46 28 125 130 121 137 157 148 141
349 356 359 360 2 3 5 6 358 349 8 21 27 19 8 4 348 356 8 349 324 50 321 322 48 52 21 3 360 19 40 40 48 39 357 2 48 40 325 347 22 34 61 84 61 15 33 24 2 359 341 337 355 18 23 43 355 345 51 67 43 42 353 341 343 347 336 305 270 303 353 9 3 341 352 24 21 29 358 357 88 101 117 132 135 131 124
351 358 2 3 5 6 8 11 8 356 4 35 44 33 12 7 359 346 345 338 330 321 281 354 60 57 59 45 4 14 44 37 40 44 8 5 35 13 340 19 26 22 45 74 97 76 58 49 5 330 333 340 0 9 352 359 0 2 25 34 63 78 347 326 2 21 341 318 306 3 349 332 328 331 360 40 18 348 349 45 98 106 113 121 120 114 110
352 358 4 5 6 8 10 13 17 15 9 25 38 30 11 1 6 353 339 328 335 335 336 56 73 31 24 47 3 16 57 39 8 39 30 16 24 5 358 9 13 44 59 55 60 52 29 20 9 349 340 338 353 4 331 345 2 360 14 11 16 52 350 325 18 61 325 316 323 313 275 274 310 322 325 359 24 332 343 55 117 123 121 119 116 115 122
355 358 4 8 7 9 12 14 20 24 26 35 40 28 15 7 22 16 0 322 306 321 344 51 72 90 48 51 8 25 70 61 22 15 61 57 46 5 357 6 2 60 83 44 19 11 355 353 348 336 331 325 328 340 317 345 358 345 12 27 350 22 3 330 8 35 298 292 295 289 266 274 298 287 291 314 17 16 326 11 121 129 133 132 132 134 135
357 358 2 8 8 10 13 15 19 24 28 35 39 29 15 7 6 7 0 327 314 345 72 38 14 110 75 41 55 41 69 80 47 0 29 50 43 33 31 29 17 36 47 12 349 334 325 320 309 309 313 311 312 315 294 277 250 261 323 2 320 353 12 338 19 7 299 300 310 312 288 228 265 71 20 332 295 208 333 73 120 126 123 115 122 132 131
358 359 1 6 8 11 14 15 18 23 28 31 35 31 15 6 13 12 359 328 333 2 73 55 7 50 43 36 46 34 41 60 39 14 30 30 33 44 41 34 33 37 12 349 329 310 306 293 276 279 280 278 281 277 272 275 247 228 219 259 308 335 17 356 38 357 299 324 346 333 249 219 31 39 18 347 318 121 86 80 105 115 114 112 117 127 129
357 0 0 3 6 8 12 16 17 20 27 28 30 32 18 10 27 27 8 347 329 339 12 61 47 50 48 45 44 24 32 47 23 9 28 11 31 58 47 31 32 18 351 338 327 312 290 273 256 267 268 261 258 255 254 254 247 233 206 192 243 288 303 282 226 187 292 325 356 193 261 300 36 33 1 3 32 82 83 77 88 108 121 127 128 130 118
355 1 359 359 3 5 8 15 15 14 23 24 19 29 28 20 25 27 16 359 314 328 0 44 44 43 50 50 31 297 99 62 32 25 33 356 19 62 46 21 18 2 348 339 323 318 301 283 260 206 275 280 259 254 251 241 235 226 198 189 199 233 328 4 326 203 200 240 221 168 334 323 34 47 351 28 64 93 99 95 104 117 129 133 130 129 120
351 359 360 355 358 3 5 11 13 9 15 19 14 22 32 29 24 23 18 357 315 333 20 32 5 8 29 47 25 319 351 54 26 18 57 354 9 62 48 13 13 359 343 337 329 331 318 302 295 225 189 132 77 335 313 263 201 55 5 322 349 123 129 79 60 240 216 228 264 18 61 248 215 167 176 70 87 114 115 97 97 134 140 141 139 134 134
348 355 360 355 352 358 2 5 10 9 9 15 14 15 25 29 25 23 25 12 333 335 30 19 346 352 14 36 35 7 356 44 3 299 38 15 6 49 83 24 7 3 354 348 340 336 318 298 312 302 243 96 103 122 344 312 86 89 356 309 286 201 159 115 51 303 266 215 250 224 215 258 233 167 108 67 85 110 110 92 132 180 149 149 151 140 138
346 350 357 356 351 352 357 2 5 6 9 14 13 12 21 25 20 19 28 16 340 320 19 17 360 13 28 29 28 10 353 2 360 339 37 13 320 351 64 21 354 32 21 357 310 292 309 270 272 283 27 21 352 111 27 309 284 131 170 285 272 254 179 140 194 274 269 259 252 229 293 297 168 113 91 87 96 107 101 87 218 175 153 157 156 137 133
341 347 354 355 350 346 350 358 1 0 6 12 12 10 15 20 18 14 19 15 347 329 19 25 7 20 34 354 340 7 1 357 353 336 236 198 288 356 25 5 356 67 24 336 293 299 295 268 276 307 57 357 340 26 138 249 257 183 171 196 241 265 237 172 209 245 253 249 244 234 325 282 92 79 87 98 99 93 101 179 205 170 157 157 146 130 137
337 341 351 353 348 343 342 349 356 357 360 5 8 10 10 13 16 11 9 16 359 331 358 19 12 22 37 352 341 6 19 9 4 341 307 209 3 356 342 326 359 28 345 346 8 314 290 290 335 353 47 47 348 310 235 249 275 163 150 173 225 225 213 195 216 244 254 248 245 61 358 261 100 82 80 88 95 114 205 251 162 140 139 133 118 119 136
333 336 347 350 346 342 338 340 347 352 356 0 8 20 23 11 5 3 3 4 350 329 352 25 17 8 12 10 10 16 15 17 21 350 336 12 17 357 342 323 354 351 357 8 356 308 344 11 4 356 20 55 94 251 281 321 325 358 121 227 286 281 251 224 211 224 243 251 202 102 269 243 124 106 76 43 94 162 214 42 75 103 115 115 112 116 123
328 331 341 347 346 343 337 334 338 340 348 357 5 32 43 18 355 352 353 349 339 320 325 359 357 348 348 4 16 12 3 14 24 0 347 358 9 2 337 290 333 340 16 11 338 1 40 15 331 346 4 29 37 292 325 344 325 329 78 93 324 344 336 255 313 1 306 255 251 214 295 36 90 109 105 76 104 119 84 73 82 96 107 109 109 112 116
320 325 336 341 343 342 336 331 332 331 337 346 346 359 26 347 329 335 336 332 320 297 294 316 331 322 314 331 359 5 351 357 9 358 338 334 341 354 44 52 25 26 40 28 357 35 39 5 325 345 349 23 69 312 317 18 321 332 12 59 337 348 359 336 313 313 185 186 263 206 96 76 86 99 98 92 98 107 102 93 93 101 110 110 109 113 118
314 320 330 337 337 339 336 329 326 325 327 333 331 329 327 316 315 324 330 333 333 320 312 309 304 295 288 284 21 1 335 323 352 4 329 300 320 10 56 57 40 37 49 44 37 37 15 4 359 326 330 25 26 325 320 20 173 323 352 31 176 21 15 4 319 283 91 59 32 110 103 95 96 99 98 94 91 93 100 97 98 112 125 123 118 120 122
311 316 326 334 334 334 334 325 320 323 324 323 325 329 328 327 336 358 21 31 6 345 331 309 285 292 35 54 7 352 351 3 45 354 322 311 320 19 59 55 39 47 64 53 34 24 358 326 322 322 333 53 28 348 307 346 61 41 346 298 234 26 19 14 4 5 6 209 233 211 122 118 114 107 104 102 90 84 97 102 100 111 127 131 127 130 129
313 317 325 333 332 331 331 321 314 316 316 317 323 324 323 331 352 17 30 17 356 340 322 312 289 103 22 356 354 36 39 28 13 341 321 338 351 19 61 58 41 47 59 49 30 19 351 306 312 330 348 67 35 10 165 130 72 51 13 329 302 6 2 360 18 353 319 178 17 347 355 128 136 134 130 128 111 96 107 116 108 107 115 119 124 135 134
320 321 326 331 331 328 325 318 311 310 311 314 317 318 327 335 344 10 28 2 341 297 262 299 350 359 340 346 18 45 358 333 331 336 313 326 339 8 87 55 24 34 52 65 53 20 356 328 331 351 93 67 24 335 291 328 297 261 282 170 162 341 335 319 29 344 314 7 22 6 357 354 163 147 141 146 148 131 125 126 122 118 115 110 109 123 129
328 327 328 331 331 327 322 314 306 303 302 306 309 319 331 329 328 16 44 18 2 308 236 315 356 337 321 339 2 360 344 344 343 322 269 274 306 272 243 253 277 78 94 154 347 3 334 295 317 333 239 345 342 280 276 307 309 276 257 184 168 191 267 258 64 34 282 283 5 16 13 279 277 333 135 150 153 148 146 145 143 147 144 129 119 119 123
330 330 331 332 329 324 318 311 304 299 298 298 307 326 334 329 338 24 35 22 22 17 285 302 316 310 305 326 352 15 40 17 355 333 311 306 278 257 268 202 148 133 88 68 37 356 316 306 13 60 248 340 340 271 271 294 298 283 251 185 178 192 192 175 171 169 165 165 48 28 53 225 290 359 135 160 161 159 166 166 162 165 169 158 144 137 136
332 333 333 332 328 321 315 311 306 301 301 303 310 341 24 49 46 22 334 331 346 346 306 298 305 304 290 293 297 278 58 4 350 351 359 3 20 15 353 29 83 68 51 68 83 27 337 339 24 226 241 190 152 294 307 269 239 249 194 170 178 192 194 184 177 187 196 178 163 98 51 224 331 12 134 169 175 179 181 176 168 162 159 157 161 166 161
332 334 333 331 326 318 315 318 316 312 315 318 328 63 130 132 173 270 274 299 317 330 329 308 310 320 310 296 297 317 72 8 341 339 338 346 1 14 18 14 13 26 39 40 43 42 326 297 250 239 244 222 207 263 275 242 253 235 158 174 196 202 206 220 218 214 239 235 219 231 276 241 242 264 208 176 177 179 177 172 167 161 160 163 169 175 176
331 335 334 329 325 320 318 321 319 315 321 330 345 91 138 187 280 284 288 298 304 314 305 275 276 288 296 281 256 344 336 311 314 345 338 323 329 349 8 353 338 355 48 35 346 251 245 248 223 209 214 205 206 252 290 276 294 311 155 198 239 234 225 242 249 246 257 263 261 263 266 264 245 228 220 199 181 177 175 175 174 168 167 173 177 181 186
331 336 335 326 326 325 319 321 324 330 355 10 359 183 147 336 317 312 307 304 300 135 161 276 272 275 287 229 205 250 293 319 354 3 351 333 318 324 340 334 317 312 311 322 281 239 251 256 244 249 211 187 200 267 295 247 260 302 324 317 299 279 262 264 269 268 264 257 247 249 258 257 245 234 226 210 188 176 174 176 177 175 176 182 182 182 187
332 339 337 327 332 335 329 345 10 42 48 37 32 124 138 0 345 338 330 325 113 139 223 287 282 256 264 346 291 233 217 231 280 263 277 307 316 317 306 216 239 276 292 316 200 202 246 288 281 347 73 186 209 272 279 273 338 356 359 355 346 333 315 305 300 298 298 281 253 241 244 235 227 241 241 219 198 189 183 181 183 183 186 190 187 181 182
337 345 336 329 352 5 8 22 23 35 64 47 24 348 332 341 338 332 329 336 104 167 230 253 271 272 288 359 322 222 218 244 254 223 222 218 228 297 282 206 218 259 260 236 212 215 234 280 282 86 115 191 220 258 280 331 357 6 14 14 3 345 329 329 327 320 322 317 297 276 275 264 246 248 243 224 214 205 194 198 207 195 189 195 197 190 185
344 343 330 333 44 45 45 45 8 8 62 69 309 289 303 323 324 320 320 332 96 176 233 231 242 261 353 346 312 239 245 258 248 223 212 191 197 229 233 199 182 215 220 225 230 223 201 176 169 146 80 123 118 192 271 311 343 3 30 31 17 358 341 340 336 325 317 307 294 296 308 305 291 280 264 236 223 216 209 215 219 195 186 193 201 199 198
351 341 334 346 72 54 49 41 3 7 82 139 280 288 296 305 308 308 307 278 216 216 270 283 278 234 156 288 305 262 242 235 232 233 218 187 208 223 205 195 204 188 195 219 238 223 206 183 158 111 75 105 37 333 294 309 344 26 49 46 38 31 22 12 360 352 345 329 305 292 300 304 297 295 296 285 258 235 224 222 215 195 184 188 196 200 204
355 338 334 336 312 347 16 16 314 291 283 293 302 305 303 300 300 314 328 305 228 220 246 291 301 248 182 263 275 252 232 218 217 212 185 167 219 217 192 190 195 158 182 230 229 145 165 173 148 77 94 115 42 31 11 347 10 45 61 55 48 40 32 25 12 3 3 6 2 345 321 314 303 289 288 287 279 269 253 232 216 201 189 189 196 204 205
356 348 354 358 339 337 358 358 263 274 285 295 303 310 315 309 265 261 231 203 224 228 224 234 252 253 268 279 220 202 225 267 250 215 160 148 239 208 184 188 163 154 192 262 142 143 153 156 141 79 88 117 77 72 90 87 62 60 57 46 40 32 25 23 13 5 6 10 4 352 338 332 327 312 293 276 266 267 269 255 235 221 206 199 201 203 202
20 1 5 11 2 342 331 320 305 297 295 301 314 323 280 217 233 216 174 170 202 223 207 214 235 241 253 273 201 162 105 315 292 277 111 116 100 63 146 123 132 183 242 343 135 166 206 167 133 104 75 78 38 53 70 71 53 44 34 21 15 11 11 13 7 4 6 359 347 342 336 330 328 325 319 304 280 264 255 243 236 233 225 217 211 207 207
21 6 358 1 3 345 324 322 328 332 331 332 342 286 254 230 217 195 166 171 199 204 194 211 234 228 240 282 280 156 31 333 307 316 17 104 124 287 286 166 148 208 266 34 175 211 240 122 117 112 103 249 290 18 21 10 14 16 5 358 358 360 2 1 355 354 352 339 333 337 335 330 326 319 313 312 299 273 254 240 233 228 224 221 218 215 212
14 5 341 321 317 323 322 323 333 351 345 302 253 248 247 210 191 194 192 195 233 200 190 207 227 208 206 239 250 225 293 359 331 292 295 184 151 245 274 182 163 246 303 170 192 212 250 57 104 124 204 241 277 11 359 345 357 359 349 349 354 355 353 350 345 344 341 333 328 329 327 323 321 317 310 306 293 278 271 263 249 236 226 222 221 219 214
303 297 306 309 309 316 322 318 311 289 276 270 252 269 265 221 151 94 127 217 294 274 189 198 232 212 194 212 232 220 204 24 288 251 266 205 151 258 291 155 134 275 282 233 192 159 72 63 103 106 163 217 257 355 343 332 347 354 349 349 351 349 348 346 342 339 339 332 325 323 321 317 316 313 309 303 287 274 271 272 263 246 233 228 227 226 223
133 329 331 327 320 317 311 284 240 228 256 343 55 311 275 233 20 5 275 243 294 314 237 217 233 221 208 217 220 193 193 277 266 230 231 209 179 197 312 342 199 237 254 257 220 113 105 75 77 97 152 214 278 343 345 345 354 355 348 346 347 346 345 343 338 335 334 330 322 314 310 308 310 311 312 312 302 281 266 260 255 246 240 238 236 236 235
94 30 4 341 311 302 310 255 181 173 335 324 216 269 283 226 161 287 273 253 292 303 269 248 240 227 210 192 174 179 205 214 204 216 232 215 188 152 4 269 224 218 218 206 99 121 111 72 85 127 184 261 327 351 353 353 354 349 341 340 342 342 341 338 331 327 327 327 323 316 309 306 304 303 306 313 315 304 282 261 249 242 242 244 243 242 236
68 25 3 337 318 313 345 333 181 194 251 260 220 306 320 321 149 203 251 247 234 247 252 249 252 255 229 180 172 209 218 181 173 200 235 209 186 204 192 174 181 220 236 233 138 134 118 89 102 144 198 308 350 359 357 356 352 342 335 333 333 332 329 326 322 320 321 322 320 315 311 309 307 304 300 299 301 303 299 283 261 248 243 241 242 242 231
41 267 246 305 311 214 187 238 242 204 214 128 117 119 287 288 284 270 259 252 250 253 249 240 245 250 227 188 197 218 205 178 175 188 185 199 254 234 143 123 111 133 269 275 160 102 95 209 213 199 55 30 22 10 3 1 356 346 338 337 335 331 326 322 319 319 319 319 318 315 311 306 303 301 297 293 293 296 294 287 279 265 252 244 243 240 231
347 276 259 276 272 232 219 227 236 286 7 28 129 243 301 300 293 278 256 246 252 260 258 246 255 261 248 229 236 220 187 175 183 175 168 190 263 63 92 80 185 174 266 330 65 95 133 215 210 169 58 38 26 15 7 1 356 350 345 341 338 334 333 331 328 321 316 312 311 313 312 306 298 293 289 286 286 285 281 278 280 277 264 252 246 240 234
336 298 294 284 232 225 234 243 243 251 354 8 347 294 302 300 288 278 270 260 263 278 278 266 277 284 255 233 248 243 181 174 178 171 178 203 206 136 130 289 248 128 91 50 105 133 151 162 148 99 64 48 31 19 11 2 355 351 347 342 339 338 338 336 328 320 314 308 302 302 308 308 303 298 295 288 282 281 279 276 278 280 271 257 246 237 233
328 309 288 264 260 266 276 281 277 256 97 32 4 331 298 290 288 284 278 260 248 307 316 321 339 338 289 239 257 283 232 192 167 157 211 231 190 132 122 321 9 84 92 123 165 135 116 114 106 87 74 67 49 30 16 3 355 351 349 347 345 343 341 337 330 324 320 313 301 293 297 302 302 301 300 292 285 283 280 273 271 276 272 257 245 235 231
267 260 248 245 256 274 283 284 282 271 95 34 8 351 319 297 295 292 282 256 249 310 345 2 333 296 286 288 314 316 267 245 201 182 212 219 116 116 64 14 56 100 126 150 154 134 119 113 108 96 83 69 50 34 19 6 360 359 358 357 352 347 344 341 335 330 327 324 316 306 302 301 299 297 293 290 290 290 283 269 264 265 262 256 249 237 224
242 242 243 237 238 254 272 277 280 304 318 310 318 321 291 281 293 315 324 306 286 291 37 21 313 295 292 297 287 272 276 282 228 216 199 106 70 60 65 65 79 126 142 143 137 129 125 126 126 115 95 71 50 36 20 10 5 2 0 360 355 347 341 339 335 329 323 321 320 316 309 303 300 297 292 290 294 298 294 280 269 261 253 251 249 238 222
227 238 258 256 253 261 278 288 287 292 290 282 278 286 279 269 279 314 330 317 272 161 123 102 70 18 282 282 294 303 305 269 249 245 97 84 69 49 123 136 142 128 124 124 123 124 128 135 135 125 110 88 66 45 21 12 7 1 2 7 8 2 357 355 349 340 331 323 316 311 308 305 302 299 298 296 296 302 307 301 286 269 253 242 237 228 215